| time (UTC) | temp F | wind direction | speed knots | gust knots | rain 1hr in | rain 24hr in | rain mn in | humidity % | barometer mb |
| 20260507180619 | 69 | 265 | 0.0 | 2.6 | 0.00 | 0.00 | 0.00 | 39 | 1011.4 |
| 20260507175133 | 68 | 330 | 0.0 | 2.6 | 0.00 | 0.00 | 0.00 | 41 | 1011.6 |
| 20260507173652 | 67 | 132 | 0.0 | 4.3 | 0.00 | 0.00 | 0.00 | 42 | 1012.0 |
| 20260507172125 | 67 | 165 | 0.0 | 1.7 | 0.00 | 0.00 | 0.00 | 44 | 1012.3 |
| 20260507170624 | 66 | 225 | 0.0 | 0.9 | 0.00 | 0.00 | 0.00 | 46 | 1012.6 |
| 20260507165118 | 64 | 140 | 0.0 | 2.6 | 0.00 | 0.00 | 0.00 | 47 | 1012.8 |
| 20260507163714 | 63 | 113 | 0.0 | 2.6 | 0.00 | 0.00 | 0.00 | 48 | 1012.8 |
| 20260507163632 | 63 | 113 | 0.0 | 2.6 | 0.00 | 0.00 | 0.00 | 48 | 1012.8 |
| 20260507162130 | 62 | 136 | 0.0 | 2.6 | 0.00 | 0.00 | 0.00 | 49 | 1013.2 |
| 20260507160706 | 61 | 158 | 0.0 | 1.7 | 0.00 | 0.00 | 0.00 | 50 | 1013.7 |
| 20260507155158 | 60 | 136 | 0.0 | 1.7 | 0.00 | 0.00 | 0.00 | 55 | 1013.7 |
| 20260507153635 | 59 | 143 | 0.0 | 2.6 | 0.00 | 0.00 | 0.00 | 56 | 1014.0 |
| 20260507152128 | 58 | 251 | 0.0 | 4.3 | 0.00 | 0.00 | 0.00 | 59 | 1014.2 |
| 20260507150703 | 57 | 292 | 0.0 | 1.7 | 0.00 | 0.00 | 0.00 | 61 | 1014.4 |
| 20260507150620 | 57 | 292 | 0.0 | 1.7 | 0.00 | 0.00 | 0.00 | 61 | 1014.4 |
| 20260507145219 | 56 | 46 | 0.0 | 1.7 | 0.00 | 0.00 | 0.00 | 65 | 1014.5 |
| 20260507145116 | 56 | 46 | 0.0 | 1.7 | 0.00 | 0.00 | 0.00 | 65 | 1014.5 |
| 20260507143630 | 55 | 109 | 0.0 | 1.7 | 0.00 | 0.00 | 0.00 | 66 | 1014.8 |
| 20260507142124 | 54 | 300 | 0.0 | 0.9 | 0.00 | 0.00 | 0.00 | 71 | 1014.9 |
| 20260507140724 | 52 | 314 | 0.0 | 1.7 | 0.00 | 0.00 | 0.00 | 74 | 1015.0 |
| 20260507135215 | 51 | 317 | 0.0 | 0.0 | 0.00 | 0.00 | 0.00 | 79 | 1015.2 |
| 20260507133628 | 49 | 331 | 0.0 | 0.0 | 0.00 | 0.00 | 0.00 | 83 | 1015.1 |
| 20260507132126 | 48 | 119 | 0.0 | 1.7 | 0.00 | 0.00 | 0.00 | 85 | 1015.2 |
| 20260507130642 | 46 | 94 | 0.0 | 0.0 | 0.00 | 0.00 | 0.00 | 87 | 1015.3 |
| 20260507125119 | 45 | 80 | 0.0 | 0.0 | 0.00 | 0.00 | 0.00 | 88 | 1015.2 |
| 20260507123635 | 44 | 30 | 0.0 | 0.0 | 0.00 | 0.00 | 0.00 | 88 | 1015.2 |
| 20260507122208 | 43 | 163 | 0.0 | 0.0 | 0.00 | 0.00 | 0.00 | 88 | 1015.1 |
| 20260507122126 | 43 | 163 | 0.0 | 0.0 | 0.00 | 0.00 | 0.00 | 88 | 1015.1 |
| 20260507120625 | 43 | 121 | 0.0 | 0.0 | 0.00 | 0.00 | 0.00 | 88 | 1015.2 |
| 20260507115118 | 42 | 153 | 0.0 | 0.0 | 0.00 | 0.00 | 0.00 | 88 | 1015.3 |
| 20260507113617 | 42 | 125 | 0.0 | 0.0 | 0.00 | 0.00 | 0.00 | 88 | 1015.4 |
| 20260507112130 | 42 | 155 | 0.0 | 0.0 | 0.00 | 0.00 | 0.00 | 87 | 1015.2 |
| 20260507110630 | 42 | 153 | 0.0 | 0.0 | 0.00 | 0.00 | 0.00 | 87 | 1015.4 |
| 20260507105123 | 43 | 154 | 0.0 | 0.0 | 0.00 | 0.00 | 0.00 | 87 | 1015.5 |
| 20260507103618 | 43 | 153 | 0.0 | 0.0 | 0.00 | 0.00 | 0.00 | 87 | 1015.4 |
| 20260507102237 | 43 | 174 | 0.0 | 0.0 | 0.00 | 0.00 | 0.00 | 86 | 1015.5 |
| 20260507102154 | 43 | 174 | 0.0 | 0.0 | 0.00 | 0.00 | 0.00 | 86 | 1015.5 |
| 20260507100628 | 43 | 174 | 0.0 | 0.0 | 0.00 | 0.00 | 0.00 | 85 | 1015.5 |
| 20260507095122 | 44 | 174 | 0.0 | 0.0 | 0.00 | 0.02 | 0.00 | 85 | 1015.7 |
| 20260507093641 | 44 | 131 | 0.0 | 0.0 | 0.00 | 0.02 | 0.00 | 85 | 1015.8 |
| 20260507092154 | 44 | 132 | 0.0 | 0.0 | 0.00 | 0.02 | 0.00 | 85 | 1015.7 |
| 20260507090647 | 44 | 131 | 0.0 | 0.0 | 0.00 | 0.02 | 0.00 | 85 | 1015.9 |
| 20260507085204 | 44 | 138 | 0.0 | 0.0 | 0.00 | 0.04 | 0.00 | 85 | 1016.0 |
| 20260507083617 | 44 | 153 | 0.0 | 0.0 | 0.00 | 0.04 | 0.00 | 85 | 1016.1 |
| 20260507082115 | 45 | 236 | 0.0 | 0.0 | 0.00 | 0.04 | 0.00 | 84 | 1016.4 |
| 20260507080629 | 45 | 240 | 0.0 | 0.0 | 0.00 | 0.04 | 0.00 | 84 | 1016.5 |
| 20260507075123 | 45 | 241 | 0.0 | 0.0 | 0.00 | 0.04 | 0.00 | 83 | 1016.6 |
| 20260507073642 | 46 | 240 | 0.0 | 0.0 | 0.00 | 0.04 | 0.00 | 82 | 1016.7 |
| 20260507072134 | 46 | 240 | 0.0 | 0.0 | 0.00 | 0.04 | 0.00 | 81 | 1016.7 |
| 20260507070633 | 46 | 240 | 0.0 | 0.0 | 0.00 | 0.04 | 0.00 | 81 | 1016.9 |
| 20260507065208 | 47 | 240 | 0.0 | 0.0 | 0.00 | 0.04 | 0.00 | 80 | 1017.0 |
| 20260507065125 | 47 | 240 | 0.0 | 0.0 | 0.00 | 0.04 | 0.00 | 80 | 1017.0 |
| 20260507063620 | 47 | 240 | 0.0 | 0.0 | 0.00 | 0.04 | 0.00 | 80 | 1017.1 |
| 20260507062117 | 47 | 304 | 0.0 | 0.0 | 0.00 | 0.04 | 0.00 | 79 | 1017.2 |
| 20260507060713 | 48 | 303 | 0.0 | 0.0 | 0.00 | 0.04 | 0.00 | 78 | 1017.1 |
| 20260507055225 | 49 | 303 | 0.0 | 0.0 | 0.00 | 0.04 | 0.00 | 76 | 1017.2 |
| 20260507053658 | 49 | 303 | 0.0 | 0.0 | 0.00 | 0.04 | 0.00 | 76 | 1017.3 |
| 20260507052132 | 49 | 303 | 0.0 | 0.0 | 0.00 | 0.04 | 0.00 | 76 | 1017.3 |
| 20260507050708 | 49 | 303 | 0.0 | 0.0 | 0.00 | 0.04 | 0.00 | 76 | 1017.2 |
| 20260507045141 | 49 | 303 | 0.0 | 0.0 | 0.00 | 0.04 | 0.04 | 76 | 1017.3 |
| 20260507043639 | 49 | 303 | 0.0 | 0.0 | 0.00 | 0.04 | 0.04 | 76 | 1017.3 |
| 20260507042132 | 49 | 311 | 0.0 | 0.0 | 0.00 | 0.04 | 0.04 | 76 | 1017.3 |
| 20260507040631 | 49 | 311 | 0.0 | 0.0 | 0.00 | 0.04 | 0.04 | 76 | 1017.1 |
| 20260507035146 | 49 | 311 | 0.0 | 0.0 | 0.00 | 0.06 | 0.04 | 77 | 1017.2 |
| 20260507033637 | 49 | 312 | 0.0 | 0.0 | 0.00 | 0.06 | 0.04 | 79 | 1017.2 |
| 20260507032133 | 49 | 312 | 0.0 | 0.0 | 0.00 | 0.06 | 0.04 | 79 | 1017.3 |
| 20260507030729 | 49 | 312 | 0.0 | 0.0 | 0.00 | 0.06 | 0.04 | 77 | 1017.2 |
| 20260507030647 | 49 | 312 | 0.0 | 0.0 | 0.00 | 0.06 | 0.04 | 77 | 1017.2 |
| 20260507025119 | 50 | 312 | 0.0 | 0.0 | 0.00 | 0.09 | 0.04 | 74 | 1017.0 |
| 20260507023658 | 51 | 311 | 0.0 | 0.0 | 0.00 | 0.09 | 0.04 | 73 | 1016.8 |
| 20260507022130 | 51 | 312 | 0.0 | 0.0 | 0.00 | 0.09 | 0.04 | 67 | 1016.8 |
| 20260507020630 | 51 | 312 | 0.0 | 0.0 | 0.00 | 0.09 | 0.04 | 65 | 1016.9 |
| 20260507015125 | 52 | 312 | 0.0 | 0.0 | 0.00 | 0.10 | 0.04 | 64 | 1016.7 |
| 20260507013640 | 53 | 312 | 0.0 | 0.0 | 0.00 | 0.10 | 0.04 | 61 | 1016.5 |
| 20260507012117 | 54 | 312 | 0.0 | 0.0 | 0.00 | 0.10 | 0.04 | 59 | 1016.3 |
| 20260507010653 | 55 | 312 | 0.0 | 0.0 | 0.00 | 0.10 | 0.04 | 59 | 1016.1 |
| 20260507005129 | 56 | 312 | 0.0 | 0.0 | 0.00 | 0.10 | 0.04 | 57 | 1016.2 |
| 20260507003645 | 56 | 313 | 0.0 | 0.0 | 0.00 | 0.10 | 0.04 | 55 | 1016.2 |
| 20260507002122 | 57 | 314 | 0.0 | 0.0 | 0.00 | 0.10 | 0.04 | 52 | 1016.1 |
| 20260507000618 | 58 | 319 | 0.0 | 0.0 | 0.00 | 0.10 | 0.04 | 51 | 1016.0 |
| 20260506235132 | 59 | 281 | 0.0 | 0.0 | 0.00 | 0.10 | 0.04 | 50 | 1016.2 |
| 20260506233631 | 58 | 319 | 0.0 | 0.0 | 0.00 | 0.10 | 0.04 | 53 | 1015.7 |
| 20260506232126 | 58 | 311 | 0.0 | 0.0 | 0.00 | 0.10 | 0.04 | 50 | 1016.1 |
| 20260506230626 | 60 | 325 | 0.0 | 0.0 | 0.00 | 0.10 | 0.04 | 46 | 1016.0 |
| 20260506225119 | 60 | 309 | 0.0 | 0.0 | 0.00 | 0.10 | 0.04 | 46 | 1016.1 |
| 20260506223639 | 62 | 305 | 0.0 | 0.0 | 0.00 | 0.10 | 0.04 | 45 | 1016.0 |
| 20260506222153 | 61 | 67 | 0.0 | 0.0 | 0.00 | 0.10 | 0.04 | 47 | 1015.9 |
| 20260506220646 | 60 | 324 | 0.0 | 0.0 | 0.00 | 0.10 | 0.04 | 48 | 1016.0 |
| 20260506215143 | 60 | 331 | 0.0 | 0.0 | 0.00 | 0.10 | 0.04 | 43 | 1016.2 |
| 20260506213719 | 60 | 315 | 0.0 | 0.0 | 0.00 | 0.10 | 0.04 | 42 | 1016.2 |
| 20260506213616 | 60 | 315 | 0.0 | 0.0 | 0.00 | 0.10 | 0.04 | 42 | 1016.2 |
| 20260506212132 | 60 | 316 | 0.0 | 0.0 | 0.00 | 0.10 | 0.04 | 48 | 1016.5 |
| 20260506210617 | 61 | 330 | 0.0 | 0.9 | 0.00 | 0.10 | 0.04 | 44 | 1016.5 |
| 20260506205153 | 61 | 325 | 0.0 | 1.7 | 0.00 | 0.10 | 0.04 | 43 | 1016.8 |
| 20260506203628 | 61 | 18 | 0.0 | 0.0 | 0.00 | 0.10 | 0.04 | 45 | 1017.0 |
| 20260506202230 | 60 | 284 | 0.0 | 1.7 | 0.00 | 0.10 | 0.04 | 46 | 1017.0 |
| 20260506200645 | 59 | 296 | 0.0 | 0.0 | 0.00 | 0.10 | 0.04 | 48 | 1017.5 |
| 20260506195159 | 59 | 264 | 0.0 | 0.0 | 0.00 | 0.10 | 0.04 | 47 | 1017.7 |
| 20260506193618 | 59 | 28 | 0.0 | 0.0 | 0.00 | 0.10 | 0.04 | 53 | 1017.8 |
| 20260506192154 | 58 | 42 | 0.0 | 0.0 | 0.00 | 0.10 | 0.04 | 52 | 1017.8 |
| 20260506190649 | 57 | 336 | 0.0 | 0.0 | 0.00 | 0.10 | 0.04 | 53 | 1018.0 |
| 20260506185148 | 56 | 321 | 0.0 | 0.0 | 0.00 | 0.10 | 0.04 | 53 | 1018.1 |
| 20260506183644 | 57 | 327 | 0.0 | 0.0 | 0.00 | 0.10 | 0.04 | 53 | 1018.2 |
| 20260506182139 | 57 | 355 | 0.0 | 0.0 | 0.00 | 0.10 | 0.04 | 57 | 1018.2 |
| 20260506180639 | 57 | 275 | 0.0 | 0.0 | 0.00 | 0.10 | 0.04 | 61 | 1018.2 |